Time,TemperatureF,DewpointF,PressureIn,WindDirection,WindDirectionDegrees,WindSpeedMPH,WindSpeedGustMPH,Humidity,HourlyPrecipIn,Conditions,Clouds,dailyrainin,SolarRadiationWatts/m^2,SoftwareType,DateUTC
2013-10-17 00:02:00,79.5,38.5,-100.00,SSE,159,0.0,-999.0,23,-99.99,,,-99.99,0.0,meteohub,2013-10-17 04:02:00,
2013-10-17 00:07:00,79.5,38.5,-100.00,SSE,161,1.0,-999.0,23,-99.99,,,-99.99,0.0,meteohub,2013-10-17 04:07:00,
2013-10-17 00:12:00,79.5,39.6,-100.00,SSE,153,0.0,-999.0,24,-99.99,,,-99.99,0.0,meteohub,2013-10-17 04:12:00,
2013-10-17 00:17:00,79.7,39.7,-100.00,SSE,150,4.0,-999.0,24,-99.99,,,-99.99,0.0,meteohub,2013-10-17 04:17:00,
2013-10-17 00:22:00,79.3,40.5,-100.00,SSE,157,1.0,-999.0,25,-99.99,,,-99.99,0.0,meteohub,2013-10-17 04:22:00,
2013-10-17 00:27:00,79.3,40.5,-100.00,SSE,167,0.0,-999.0,25,-99.99,,,-99.99,0.0,meteohub,2013-10-17 04:27:00,
2013-10-17 00:32:00,79.3,40.5,-100.00,SSE,161,0.0,-999.0,25,-99.99,,,-99.99,0.0,meteohub,2013-10-17 04:32:00,
2013-10-17 00:37:00,79.3,40.5,-100.00,SSE,163,0.0,-999.0,25,-99.99,,,-99.99,0.0,meteohub,2013-10-17 04:37:00,
2013-10-17 00:42:00,79.3,40.5,-100.00,SSE,166,0.0,-999.0,25,-99.99,,,-99.99,0.0,meteohub,2013-10-17 04:42:00,
2013-10-17 00:47:00,79.3,40.5,-100.00,SSE,166,0.0,-999.0,25,-99.99,,,-99.99,0.0,meteohub,2013-10-17 04:47:00,
2013-10-17 00:52:00,79.3,40.5,-100.00,SSE,161,0.0,-999.0,25,-99.99,,,-99.99,0.0,meteohub,2013-10-17 04:52:00,
2013-10-17 00:57:00,79.3,40.5,-100.00,SSE,160,0.0,-999.0,25,-99.99,,,-99.99,0.0,meteohub,2013-10-17 04:57:00,
2013-10-17 01:02:00,79.3,40.5,-100.00,SSE,159,0.0,-999.0,25,-99.99,,,-99.99,0.0,meteohub,2013-10-17 05:02:00,
2013-10-17 01:07:00,79.3,40.5,-100.00,SSE,162,0.0,-999.0,25,-99.99,,,-99.99,0.0,meteohub,2013-10-17 05:07:00,
2013-10-17 01:12:00,79.2,40.3,-100.00,SSE,161,3.0,-999.0,25,-99.99,,,-99.99,0.0,meteohub,2013-10-17 05:12:00,
2013-10-17 01:17:00,79.2,41.4,-100.00,SSE,159,0.0,-999.0,26,-99.99,,,-99.99,0.0,meteohub,2013-10-17 05:17:00,
2013-10-17 01:27:00,79.0,41.2,-100.00,SSE,157,0.0,-999.0,26,-99.99,,,-99.99,0.0,meteohub,2013-10-17 05:27:00,
2013-10-17 01:32:00,79.2,41.4,-100.00,SSE,156,0.0,-999.0,26,-99.99,,,-99.99,0.0,meteohub,2013-10-17 05:32:00,
2013-10-17 01:37:00,79.3,40.5,-100.00,SSE,156,0.0,-999.0,25,-99.99,,,-99.99,0.0,meteohub,2013-10-17 05:37:00,
2013-10-17 01:42:00,79.2,39.2,-100.00,SSE,154,1.0,-999.0,24,-99.99,,,-99.99,0.0,meteohub,2013-10-17 05:42:00,
2013-10-17 01:47:00,79.2,40.3,-100.00,SSE,156,1.0,-999.0,25,-99.99,,,-99.99,0.0,meteohub,2013-10-17 05:47:00,
2013-10-17 01:52:00,79.2,41.4,-100.00,SSE,154,0.0,-999.0,26,-99.99,,,-99.99,0.0,meteohub,2013-10-17 05:52:00,
2013-10-17 01:57:00,79.3,41.5,-100.00,SSE,160,0.0,-999.0,26,-99.99,,,-99.99,0.0,meteohub,2013-10-17 05:57:00,
2013-10-17 02:02:00,79.3,41.5,-100.00,SSE,155,0.0,-999.0,26,-99.99,,,-99.99,0.0,meteohub,2013-10-17 06:02:00,
2013-10-17 02:07:00,79.2,40.3,-100.00,SSE,155,0.0,-999.0,25,-99.99,,,-99.99,0.0,meteohub,2013-10-17 06:07:00,
2013-10-17 02:12:00,79.2,39.2,-100.00,SSE,155,0.0,-999.0,24,-99.99,,,-99.99,0.0,meteohub,2013-10-17 06:12:00,
2013-10-17 02:17:00,79.2,39.2,-100.00,SSE,155,0.0,-999.0,24,-99.99,,,-99.99,0.0,meteohub,2013-10-17 06:17:00,
2013-10-17 02:22:00,79.0,39.2,-100.00,SSE,155,0.0,-999.0,24,-99.99,,,-99.99,0.0,meteohub,2013-10-17 06:22:00,
2013-10-17 02:27:00,79.0,39.2,-100.00,SSE,155,0.0,-999.0,24,-99.99,,,-99.99,0.0,meteohub,2013-10-17 06:27:00,
2013-10-17 02:32:00,79.2,38.1,-100.00,SSE,155,0.0,-999.0,23,-99.99,,,-99.99,0.0,meteohub,2013-10-17 06:32:00,
2013-10-17 02:37:00,79.0,37.9,-100.00,SSE,155,0.0,-999.0,23,-99.99,,,-99.99,0.0,meteohub,2013-10-17 06:37:00,
2013-10-17 02:42:00,79.0,37.9,-100.00,SSE,154,0.0,-999.0,23,-99.99,,,-99.99,0.0,meteohub,2013-10-17 06:42:00,
2013-10-17 02:47:00,78.8,37.9,-100.00,SSE,153,0.0,-999.0,23,-99.99,,,-99.99,0.0,meteohub,2013-10-17 06:47:00,
2013-10-17 02:52:00,78.6,36.7,-100.00,SSE,154,0.0,-999.0,22,-99.99,,,-99.99,0.0,meteohub,2013-10-17 06:52:00,
2013-10-17 02:57:00,78.6,36.7,-100.00,SSE,154,0.0,-999.0,22,-99.99,,,-99.99,0.0,meteohub,2013-10-17 06:57:00,
2013-10-17 03:02:00,78.6,37.8,-100.00,SSE,154,0.0,-999.0,23,-99.99,,,-99.99,0.0,meteohub,2013-10-17 07:02:00,
2013-10-17 03:07:00,78.6,36.7,-100.00,SSE,154,0.0,-999.0,22,-99.99,,,-99.99,0.0,meteohub,2013-10-17 07:07:00,
2013-10-17 03:12:00,78.6,36.7,-100.00,SSE,155,0.0,-999.0,22,-99.99,,,-99.99,0.0,meteohub,2013-10-17 07:12:00,
2013-10-17 03:17:00,78.6,37.8,-100.00,SSE,155,0.0,-999.0,23,-99.99,,,-99.99,0.0,meteohub,2013-10-17 07:17:00,
2013-10-17 03:22:00,78.6,37.8,-100.00,SSE,155,0.0,-999.0,23,-99.99,,,-99.99,0.0,meteohub,2013-10-17 07:22:00,
2013-10-17 03:27:00,78.6,36.7,-100.00,SSE,155,0.0,-999.0,22,-99.99,,,-99.99,0.0,meteohub,2013-10-17 07:27:00,
2013-10-17 03:32:00,78.6,35.4,-100.00,SSE,155,0.0,-999.0,21,-99.99,,,-99.99,0.0,meteohub,2013-10-17 07:32:00,
2013-10-17 03:37:00,78.6,35.4,-100.00,SSE,155,0.0,-999.0,21,-99.99,,,-99.99,0.0,meteohub,2013-10-17 07:37:00,
2013-10-17 03:42:00,78.6,35.4,-100.00,SSE,155,0.0,-999.0,21,-99.99,,,-99.99,0.0,meteohub,2013-10-17 07:42:00,
2013-10-17 03:47:00,78.6,34.2,-100.00,SSE,155,0.0,-999.0,20,-99.99,,,-99.99,0.0,meteohub,2013-10-17 07:47:00,
2013-10-17 03:52:00,78.6,32.9,-100.00,SSE,155,0.0,-999.0,19,-99.99,,,-99.99,0.0,meteohub,2013-10-17 07:52:00,
2013-10-17 03:57:00,78.6,32.9,-100.00,SSE,155,0.0,-999.0,19,-99.99,,,-99.99,0.0,meteohub,2013-10-17 07:57:00,
2013-10-17 04:02:00,78.6,31.6,-100.00,SSE,155,0.0,-999.0,18,-99.99,,,-99.99,0.0,meteohub,2013-10-17 08:02:00,
2013-10-17 04:07:00,78.6,31.6,-100.00,SSE,155,0.0,-999.0,18,-99.99,,,-99.99,0.0,meteohub,2013-10-17 08:07:00,
2013-10-17 04:12:00,78.6,31.6,-100.00,SSE,155,0.0,-999.0,18,-99.99,,,-99.99,0.0,meteohub,2013-10-17 08:12:00,
2013-10-17 04:17:00,78.6,31.6,-100.00,SSE,155,0.0,-999.0,18,-99.99,,,-99.99,0.0,meteohub,2013-10-17 08:17:00,
2013-10-17 04:22:00,78.6,31.6,-100.00,SSE,155,0.0,-999.0,18,-99.99,,,-99.99,0.0,meteohub,2013-10-17 08:22:00,
2013-10-17 04:27:00,78.6,30.2,-100.00,SSE,155,0.0,-999.0,17,-99.99,,,-99.99,0.0,meteohub,2013-10-17 08:27:00,
2013-10-17 04:32:00,78.6,30.2,-100.00,SSE,155,0.0,-999.0,17,-99.99,,,-99.99,0.0,meteohub,2013-10-17 08:32:00,
2013-10-17 04:37:00,78.4,30.0,-100.00,SSE,155,0.0,-999.0,17,-99.99,,,-99.99,0.0,meteohub,2013-10-17 08:37:00,
2013-10-17 04:42:00,78.3,29.8,-100.00,SSE,155,0.0,-999.0,17,-99.99,,,-99.99,0.0,meteohub,2013-10-17 08:42:00,
2013-10-17 04:47:00,78.1,28.2,-100.00,SSE,155,0.0,-999.0,16,-99.99,,,-99.99,0.0,meteohub,2013-10-17 08:47:00,
2013-10-17 04:52:00,77.5,27.9,-100.00,SSE,155,0.0,-999.0,16,-99.99,,,-99.99,0.0,meteohub,2013-10-17 08:52:00,
2013-10-17 04:57:00,77.5,26.2,-100.00,SSE,155,0.0,-999.0,15,-99.99,,,-99.99,0.0,meteohub,2013-10-17 08:57:00,
2013-10-17 05:02:00,77.4,24.4,-100.00,SSE,155,0.0,-999.0,14,-99.99,,,-99.99,0.0,meteohub,2013-10-17 09:02:00,
2013-10-17 05:07:00,77.2,24.3,-100.00,SSE,155,0.0,-999.0,14,-99.99,,,-99.99,0.0,meteohub,2013-10-17 09:07:00,
2013-10-17 05:12:00,77.2,22.5,-100.00,SSE,155,0.0,-999.0,13,-99.99,,,-99.99,0.0,meteohub,2013-10-17 09:12:00,
2013-10-17 05:17:00,77.2,22.5,-100.00,SSE,155,0.0,-999.0,13,-99.99,,,-99.99,0.0,meteohub,2013-10-17 09:17:00,
2013-10-17 05:22:00,77.2,22.5,-100.00,SSE,155,0.0,-999.0,13,-99.99,,,-99.99,0.0,meteohub,2013-10-17 09:22:00,
2013-10-17 05:27:00,77.0,22.5,-100.00,SSE,155,0.0,-999.0,13,-99.99,,,-99.99,0.0,meteohub,2013-10-17 09:27:00,
2013-10-17 05:32:00,77.0,22.5,-100.00,SSE,155,0.0,-999.0,13,-99.99,,,-99.99,0.0,meteohub,2013-10-17 09:32:00,
2013-10-17 05:37:00,76.8,22.3,-100.00,SSE,155,0.0,-999.0,13,-99.99,,,-99.99,0.0,meteohub,2013-10-17 09:37:00,
2013-10-17 05:42:00,76.8,22.3,-100.00,SSE,155,0.0,-999.0,13,-99.99,,,-99.99,0.0,meteohub,2013-10-17 09:42:00,
2013-10-17 05:47:00,76.8,22.3,-100.00,SSE,155,0.0,-999.0,13,-99.99,,,-99.99,0.0,meteohub,2013-10-17 09:47:00,
2013-10-17 05:52:00,76.6,22.1,-100.00,SSE,155,0.0,-999.0,13,-99.99,,,-99.99,0.0,meteohub,2013-10-17 09:52:00,
2013-10-17 05:57:00,76.6,22.1,-100.00,SSE,155,0.0,-999.0,13,-99.99,,,-99.99,0.0,meteohub,2013-10-17 09:57:00,
2013-10-17 06:02:00,76.5,23.7,-100.00,SSE,155,0.0,-999.0,14,-99.99,,,-99.99,0.0,meteohub,2013-10-17 10:02:00,
2013-10-17 06:07:00,76.5,23.7,-100.00,SSE,155,0.0,-999.0,14,-99.99,,,-99.99,0.0,meteohub,2013-10-17 10:07:00,
2013-10-17 06:12:00,76.3,23.5,-100.00,SSE,155,0.0,-999.0,14,-99.99,,,-99.99,0.0,meteohub,2013-10-17 10:12:00,
2013-10-17 06:17:00,75.9,23.4,-100.00,SSE,155,0.0,-999.0,14,-99.99,,,-99.99,0.0,meteohub,2013-10-17 10:17:00,
2013-10-17 06:22:00,75.7,23.2,-100.00,SSE,155,0.0,-999.0,14,-99.99,,,-99.99,0.0,meteohub,2013-10-17 10:22:00,
2013-10-17 06:32:00,75.7,23.2,-100.00,SSE,155,0.0,-999.0,14,-99.99,,,-99.99,0.0,meteohub,2013-10-17 10:32:00,
2013-10-17 06:37:00,75.7,24.8,-100.00,SSE,155,0.0,-999.0,15,-99.99,,,-99.99,0.0,meteohub,2013-10-17 10:37:00,
2013-10-17 06:42:00,75.6,24.6,-100.00,SSE,155,0.0,-999.0,15,-99.99,,,-99.99,0.0,meteohub,2013-10-17 10:42:00,
2013-10-17 06:47:00,75.6,24.6,-100.00,SSE,155,0.0,-999.0,15,-99.99,,,-99.99,0.0,meteohub,2013-10-17 10:47:00,
2013-10-17 06:52:00,75.6,24.6,-100.00,SSE,155,0.0,-999.0,15,-99.99,,,-99.99,0.0,meteohub,2013-10-17 10:52:00,
2013-10-17 07:02:00,75.0,24.3,-100.00,SSE,155,0.0,-999.0,15,-99.99,,,-99.99,0.0,meteohub,2013-10-17 11:02:00,
2013-10-17 07:07:00,75.0,25.7,-100.00,SSE,155,0.0,-999.0,16,-99.99,,,-99.99,0.0,meteohub,2013-10-17 11:07:00,
2013-10-17 07:12:00,75.0,25.7,-100.00,SSE,155,0.0,-999.0,16,-99.99,,,-99.99,0.0,meteohub,2013-10-17 11:12:00,
2013-10-17 07:17:00,75.0,25.7,-100.00,SSE,155,0.0,-999.0,16,-99.99,,,-99.99,0.0,meteohub,2013-10-17 11:17:00,
2013-10-17 07:22:00,75.0,25.7,-100.00,SSE,155,0.0,-999.0,16,-99.99,,,-99.99,5.0,meteohub,2013-10-17 11:22:00,
2013-10-17 07:32:00,74.8,25.7,-100.00,SSE,155,0.0,-999.0,16,-99.99,,,-99.99,11.0,meteohub,2013-10-17 11:32:00,
2013-10-17 07:37:00,74.8,25.7,-100.00,SSE,155,0.0,-999.0,16,-99.99,,,-99.99,14.0,meteohub,2013-10-17 11:37:00,
2013-10-17 07:42:00,74.8,25.7,-100.00,SSE,155,0.0,-999.0,16,-99.99,,,-99.99,16.0,meteohub,2013-10-17 11:42:00,
2013-10-17 07:47:00,75.2,25.9,-100.00,SSE,155,0.0,-999.0,16,-99.99,,,-99.99,18.0,meteohub,2013-10-17 11:47:00,
2013-10-17 07:52:00,75.4,26.1,-100.00,SSE,155,0.0,-999.0,16,-99.99,,,-99.99,42.0,meteohub,2013-10-17 11:52:00,
2013-10-17 07:57:00,75.4,26.1,-100.00,SSE,155,0.0,-999.0,16,-99.99,,,-99.99,69.0,meteohub,2013-10-17 11:57:00,
2013-10-17 08:02:00,75.6,26.2,-100.00,SSE,155,0.0,-999.0,16,-99.99,,,-99.99,58.0,meteohub,2013-10-17 12:02:00,
2013-10-17 08:07:00,76.1,26.6,-100.00,SSE,155,2.0,-999.0,16,-99.99,,,-99.99,37.0,meteohub,2013-10-17 12:07:00,
2013-10-17 08:12:00,76.5,25.3,-100.00,SSE,154,0.0,-999.0,15,-99.99,,,-99.99,53.0,meteohub,2013-10-17 12:12:00,
2013-10-17 08:17:00,76.8,24.1,-100.00,SSE,154,0.0,-999.0,14,-99.99,,,-99.99,37.0,meteohub,2013-10-17 12:17:00,
2013-10-17 08:22:00,76.8,24.1,-100.00,SSE,154,0.0,-999.0,14,-99.99,,,-99.99,39.0,meteohub,2013-10-17 12:22:00,
2013-10-17 08:27:00,77.2,24.3,-100.00,SSE,153,0.0,-999.0,14,-99.99,,,-99.99,62.0,meteohub,2013-10-17 12:27:00,
2013-10-17 08:32:00,77.2,24.3,-100.00,SSE,153,0.0,-999.0,14,-99.99,,,-99.99,53.0,meteohub,2013-10-17 12:32:00,
2013-10-17 08:37:00,77.2,24.3,-100.00,SSE,154,0.0,-999.0,14,-99.99,,,-99.99,65.0,meteohub,2013-10-17 12:37:00,
2013-10-17 08:42:00,77.4,24.4,-100.00,SSE,154,0.0,-999.0,14,-99.99,,,-99.99,62.0,meteohub,2013-10-17 12:42:00,
2013-10-17 08:47:00,77.5,24.6,-100.00,SSE,153,0.0,-999.0,14,-99.99,,,-99.99,77.0,meteohub,2013-10-17 12:47:00,
2013-10-17 08:52:00,77.7,24.8,-100.00,SSE,154,0.0,-999.0,14,-99.99,,,-99.99,209.0,meteohub,2013-10-17 12:52:00,
2013-10-17 08:57:00,78.3,23.4,-100.00,SSE,154,0.0,-999.0,13,-99.99,,,-99.99,192.0,meteohub,2013-10-17 12:57:00,
2013-10-17 09:02:00,79.0,23.9,-100.00,SSE,154,0.0,-999.0,13,-99.99,,,-99.99,411.0,meteohub,2013-10-17 13:02:00,
2013-10-17 09:07:00,80.1,24.8,-100.00,SSE,153,0.0,-999.0,13,-99.99,,,-99.99,446.0,meteohub,2013-10-17 13:07:00,
2013-10-17 09:12:00,81.1,25.7,-100.00,SSE,154,0.0,-999.0,13,-99.99,,,-99.99,425.0,meteohub,2013-10-17 13:12:00,
2013-10-17 09:17:00,81.9,29.7,-100.00,SSE,153,0.0,-999.0,15,-99.99,,,-99.99,406.0,meteohub,2013-10-17 13:17:00,
2013-10-17 09:22:00,82.4,36.0,-100.00,SSE,153,0.0,-999.0,19,-99.99,,,-99.99,399.0,meteohub,2013-10-17 13:22:00,
2013-10-17 09:27:00,82.8,40.1,-100.00,SSE,153,0.0,-999.0,22,-99.99,,,-99.99,417.0,meteohub,2013-10-17 13:27:00,
2013-10-17 09:32:00,82.8,47.3,-100.00,SSE,153,0.0,-999.0,29,-99.99,,,-99.99,441.0,meteohub,2013-10-17 13:32:00,
2013-10-17 09:37:00,82.8,50.7,-100.00,SSE,153,0.0,-999.0,33,-99.99,,,-99.99,471.0,meteohub,2013-10-17 13:37:00,
2013-10-17 09:42:00,82.9,50.9,-100.00,SSE,153,0.0,-999.0,33,-99.99,,,-99.99,494.0,meteohub,2013-10-17 13:42:00,
2013-10-17 09:47:00,83.3,52.9,-100.00,SSE,150,2.0,-999.0,35,-99.99,,,-99.99,547.0,meteohub,2013-10-17 13:47:00,
2013-10-17 09:52:00,83.7,54.7,-100.00,SSE,150,0.0,-999.0,37,-99.99,,,-99.99,608.0,meteohub,2013-10-17 13:52:00,
2013-10-17 09:57:00,83.7,54.7,-100.00,SSE,163,0.0,-999.0,37,-99.99,,,-99.99,626.0,meteohub,2013-10-17 13:57:00,
2013-10-17 10:02:00,83.7,56.1,-100.00,SSE,156,0.0,-999.0,39,-99.99,,,-99.99,647.0,meteohub,2013-10-17 14:02:00,
2013-10-17 10:07:00,83.5,55.9,-100.00,SSE,167,0.0,-999.0,39,-99.99,,,-99.99,645.0,meteohub,2013-10-17 14:07:00,
2013-10-17 10:12:00,83.7,56.8,-100.00,SSE,168,3.0,-999.0,40,-99.99,,,-99.99,628.0,meteohub,2013-10-17 14:12:00,
2013-10-17 10:17:00,83.5,56.7,-100.00,ESE,110,0.0,-999.0,40,-99.99,,,-99.99,647.0,meteohub,2013-10-17 14:17:00,
2013-10-17 10:22:00,83.8,58.3,-100.00,South,172,1.0,-999.0,42,-99.99,,,-99.99,650.0,meteohub,2013-10-17 14:22:00,
2013-10-17 10:27:00,83.8,60.8,-100.00,South,184,2.0,-999.0,46,-99.99,,,-99.99,643.0,meteohub,2013-10-17 14:27:00,
2013-10-17 10:32:00,83.8,60.8,-100.00,SSE,157,0.0,-999.0,46,-99.99,,,-99.99,654.0,meteohub,2013-10-17 14:32:00,
2013-10-17 10:37:00,83.7,60.1,-100.00,SSE,153,3.0,-999.0,45,-99.99,,,-99.99,659.0,meteohub,2013-10-17 14:37:00,
2013-10-17 10:42:00,83.7,60.6,-100.00,SSE,161,0.0,-999.0,46,-99.99,,,-99.99,679.0,meteohub,2013-10-17 14:42:00,
2013-10-17 10:47:00,84.4,61.9,-100.00,South,176,1.0,-999.0,47,-99.99,,,-99.99,680.0,meteohub,2013-10-17 14:47:00,
2013-10-17 10:52:00,84.9,63.7,-100.00,SW,229,0.0,-999.0,49,-99.99,,,-99.99,705.0,meteohub,2013-10-17 14:52:00,
2013-10-17 10:57:00,85.3,64.6,-100.00,SSE,168,0.0,-999.0,50,-99.99,,,-99.99,715.0,meteohub,2013-10-17 14:57:00,
2013-10-17 11:02:00,84.7,63.5,-100.00,SSW,205,2.0,-999.0,49,-99.99,,,-99.99,752.0,meteohub,2013-10-17 15:02:00,
2013-10-17 11:07:00,84.7,63.5,-100.00,South,177,0.0,-999.0,49,-99.99,,,-99.99,761.0,meteohub,2013-10-17 15:07:00,
2013-10-17 11:12:00,84.6,61.5,-100.00,SE,140,3.0,-999.0,46,-99.99,,,-99.99,809.0,meteohub,2013-10-17 15:12:00,
2013-10-17 11:17:00,84.9,63.0,-100.00,SW,217,0.0,-999.0,48,-99.99,,,-99.99,461.0,meteohub,2013-10-17 15:17:00,
2013-10-17 11:22:00,84.7,63.0,-100.00,SW,221,3.0,-999.0,48,-99.99,,,-99.99,784.0,meteohub,2013-10-17 15:22:00,
2013-10-17 11:27:00,85.3,64.0,-100.00,SSE,150,4.0,-999.0,49,-99.99,,,-99.99,779.0,meteohub,2013-10-17 15:27:00,
2013-10-17 11:32:00,85.5,65.8,-100.00,SSE,153,5.0,-999.0,52,-99.99,,,-99.99,773.0,meteohub,2013-10-17 15:32:00,
2013-10-17 11:37:00,85.5,66.4,-100.00,SSE,149,4.0,-999.0,53,-99.99,,,-99.99,777.0,meteohub,2013-10-17 15:37:00,
2013-10-17 11:42:00,85.8,66.7,-100.00,SSW,196,1.0,-999.0,53,-99.99,,,-99.99,810.0,meteohub,2013-10-17 15:42:00,
2013-10-17 11:47:00,86.4,67.8,-100.00,SSW,200,5.0,-999.0,54,-99.99,,,-99.99,809.0,meteohub,2013-10-17 15:47:00,
2013-10-17 11:52:00,86.5,68.0,-100.00,SSE,163,3.0,-999.0,54,-99.99,,,-99.99,793.0,meteohub,2013-10-17 15:52:00,
2013-10-17 11:57:00,86.5,68.4,-100.00,SSE,167,3.0,-999.0,55,-99.99,,,-99.99,798.0,meteohub,2013-10-17 15:57:00,
2013-10-17 12:02:00,86.5,68.4,-100.00,SE,138,0.0,-999.0,55,-99.99,,,-99.99,807.0,meteohub,2013-10-17 16:02:00,
2013-10-17 12:07:00,86.2,68.7,-100.00,South,175,0.0,-999.0,56,-99.99,,,-99.99,810.0,meteohub,2013-10-17 16:07:00,
2013-10-17 12:12:00,86.7,68.5,-100.00,East,90,1.0,-999.0,55,-99.99,,,-99.99,817.0,meteohub,2013-10-17 16:12:00,
2013-10-17 12:17:00,87.1,68.9,-100.00,SW,217,2.0,-999.0,55,-99.99,,,-99.99,821.0,meteohub,2013-10-17 16:17:00,
2013-10-17 12:22:00,86.7,68.5,-100.00,SSE,165,3.0,-999.0,55,-99.99,,,-99.99,831.0,meteohub,2013-10-17 16:22:00,
2013-10-17 12:27:00,86.7,68.5,-100.00,SSE,161,0.0,-999.0,55,-99.99,,,-99.99,828.0,meteohub,2013-10-17 16:27:00,
2013-10-17 12:32:00,87.1,68.9,-100.00,SSE,160,2.0,-999.0,55,-99.99,,,-99.99,831.0,meteohub,2013-10-17 16:32:00,
2013-10-17 12:37:00,87.6,70.0,-100.00,SSW,203,1.0,-999.0,56,-99.99,,,-99.99,872.0,meteohub,2013-10-17 16:37:00,
2013-10-17 12:42:00,87.3,69.6,-100.00,SSW,200,3.0,-999.0,56,-99.99,,,-99.99,844.0,meteohub,2013-10-17 16:42:00,
2013-10-17 12:52:00,86.7,68.0,-100.00,SE,140,0.0,-999.0,54,-99.99,,,-99.99,844.0,meteohub,2013-10-17 16:52:00,
2013-10-17 12:57:00,87.4,69.3,-100.00,South,180,1.0,-999.0,55,-99.99,,,-99.99,840.0,meteohub,2013-10-17 16:57:00,
2013-10-17 13:02:00,87.1,68.9,-100.00,SSE,162,4.0,-999.0,55,-99.99,,,-99.99,847.0,meteohub,2013-10-17 17:02:00,
2013-10-17 13:07:00,86.5,68.4,-100.00,SE,129,4.0,-999.0,55,-99.99,,,-99.99,831.0,meteohub,2013-10-17 17:07:00,
2013-10-17 13:12:00,87.1,69.4,-100.00,WNW,283,3.0,-999.0,56,-99.99,,,-99.99,838.0,meteohub,2013-10-17 17:12:00,
2013-10-17 13:17:00,88.0,70.3,-100.00,SSE,150,5.0,-999.0,56,-99.99,,,-99.99,835.0,meteohub,2013-10-17 17:17:00,
2013-10-17 13:22:00,88.0,70.3,-100.00,SSE,161,4.0,-999.0,56,-99.99,,,-99.99,833.0,meteohub,2013-10-17 17:22:00,
2013-10-17 13:27:00,87.6,70.0,-100.00,SSE,159,5.0,-999.0,56,-99.99,,,-99.99,830.0,meteohub,2013-10-17 17:27:00,
2013-10-17 13:32:00,87.3,70.2,-100.00,SE,141,0.0,-999.0,57,-99.99,,,-99.99,828.0,meteohub,2013-10-17 17:32:00,
2013-10-17 13:37:00,87.4,69.8,-100.00,WSW,238,10.0,-999.0,56,-99.99,,,-99.99,821.0,meteohub,2013-10-17 17:37:00,
2013-10-17 13:42:00,87.8,70.2,-100.00,SW,234,5.0,-999.0,56,-99.99,,,-99.99,819.0,meteohub,2013-10-17 17:42:00,
2013-10-17 13:47:00,87.6,70.0,-100.00,SE,145,4.0,-999.0,56,-99.99,,,-99.99,812.0,meteohub,2013-10-17 17:47:00,
2013-10-17 13:52:00,87.4,70.3,-100.00,SSW,203,0.0,-999.0,57,-99.99,,,-99.99,807.0,meteohub,2013-10-17 17:52:00,
2013-10-17 13:57:00,87.6,70.0,-100.00,South,170,1.0,-999.0,56,-99.99,,,-99.99,805.0,meteohub,2013-10-17 17:57:00,
2013-10-17 14:02:00,87.8,70.2,-100.00,SSW,205,7.0,-999.0,56,-99.99,,,-99.99,800.0,meteohub,2013-10-17 18:02:00,
2013-10-17 14:07:00,87.6,70.0,-100.00,NE,56,0.0,-999.0,56,-99.99,,,-99.99,791.0,meteohub,2013-10-17 18:07:00,
2013-10-17 14:12:00,87.8,70.7,-100.00,SSE,156,1.0,-999.0,57,-99.99,,,-99.99,784.0,meteohub,2013-10-17 18:12:00,
2013-10-17 14:17:00,87.6,70.0,-100.00,SE,146,4.0,-999.0,56,-99.99,,,-99.99,779.0,meteohub,2013-10-17 18:17:00,
2013-10-17 14:22:00,88.0,70.9,-100.00,SSE,154,0.0,-999.0,57,-99.99,,,-99.99,773.0,meteohub,2013-10-17 18:22:00,
2013-10-17 14:27:00,88.2,70.5,-100.00,SSE,152,1.0,-999.0,56,-99.99,,,-99.99,761.0,meteohub,2013-10-17 18:27:00,
2013-10-17 14:32:00,88.0,70.9,-100.00,WSW,242,1.0,-999.0,57,-99.99,,,-99.99,754.0,meteohub,2013-10-17 18:32:00,
2013-10-17 14:37:00,87.8,70.7,-100.00,SSW,210,0.0,-999.0,57,-99.99,,,-99.99,747.0,meteohub,2013-10-17 18:37:00,
2013-10-17 14:42:00,87.6,70.5,-100.00,SSW,199,5.0,-999.0,57,-99.99,,,-99.99,738.0,meteohub,2013-10-17 18:42:00,
2013-10-17 14:47:00,87.4,70.3,-100.00,South,182,6.0,-999.0,57,-99.99,,,-99.99,728.0,meteohub,2013-10-17 18:47:00,
2013-10-17 14:52:00,87.3,70.2,-100.00,SSW,195,4.0,-999.0,57,-99.99,,,-99.99,719.0,meteohub,2013-10-17 18:52:00,
2013-10-17 14:57:00,87.6,70.5,-100.00,South,191,1.0,-999.0,57,-99.99,,,-99.99,707.0,meteohub,2013-10-17 18:57:00,
2013-10-17 15:02:00,87.6,70.5,-100.00,South,190,3.0,-999.0,57,-99.99,,,-99.99,694.0,meteohub,2013-10-17 19:02:00,
2013-10-17 15:07:00,87.8,70.7,-100.00,SSE,148,3.0,-999.0,57,-99.99,,,-99.99,684.0,meteohub,2013-10-17 19:07:00,
2013-10-17 15:12:00,87.3,70.2,-100.00,SW,215,1.0,-999.0,57,-99.99,,,-99.99,670.0,meteohub,2013-10-17 19:12:00,
2013-10-17 15:17:00,87.1,69.4,-100.00,SSW,196,2.0,-999.0,56,-99.99,,,-99.99,657.0,meteohub,2013-10-17 19:17:00,
2013-10-17 15:22:00,87.3,70.2,-100.00,SE,129,0.0,-999.0,57,-99.99,,,-99.99,647.0,meteohub,2013-10-17 19:22:00,
2013-10-17 15:27:00,87.3,69.6,-100.00,South,190,0.0,-999.0,56,-99.99,,,-99.99,633.0,meteohub,2013-10-17 19:27:00,
2013-10-17 15:32:00,87.4,69.8,-100.00,WSW,240,0.0,-999.0,56,-99.99,,,-99.99,617.0,meteohub,2013-10-17 19:32:00,
2013-10-17 15:37:00,88.2,70.5,-100.00,South,186,1.0,-999.0,56,-99.99,,,-99.99,603.0,meteohub,2013-10-17 19:37:00,
2013-10-17 15:42:00,87.6,70.5,-100.00,SSW,202,2.0,-999.0,57,-99.99,,,-99.99,591.0,meteohub,2013-10-17 19:42:00,
2013-10-17 15:47:00,87.4,70.3,-100.00,WSW,254,1.0,-999.0,57,-99.99,,,-99.99,575.0,meteohub,2013-10-17 19:47:00,
2013-10-17 15:52:00,87.1,70.0,-100.00,South,189,0.0,-999.0,57,-99.99,,,-99.99,563.0,meteohub,2013-10-17 19:52:00,
2013-10-17 15:57:00,86.7,69.6,-100.00,SE,136,5.0,-999.0,57,-99.99,,,-99.99,547.0,meteohub,2013-10-17 19:57:00,
2013-10-17 16:02:00,86.9,69.3,-100.00,SE,124,2.0,-999.0,56,-99.99,,,-99.99,533.0,meteohub,2013-10-17 20:02:00,
2013-10-17 16:07:00,87.1,69.4,-100.00,SE,136,6.0,-999.0,56,-99.99,,,-99.99,519.0,meteohub,2013-10-17 20:07:00,
2013-10-17 16:12:00,87.1,69.4,-100.00,SSE,167,1.0,-999.0,56,-99.99,,,-99.99,501.0,meteohub,2013-10-17 20:12:00,
2013-10-17 16:17:00,87.1,69.4,-100.00,West,277,0.0,-999.0,56,-99.99,,,-99.99,485.0,meteohub,2013-10-17 20:17:00,
2013-10-17 16:22:00,87.1,69.4,-100.00,South,178,0.0,-999.0,56,-99.99,,,-99.99,468.0,meteohub,2013-10-17 20:22:00,
2013-10-17 16:27:00,87.1,69.4,-100.00,South,173,0.0,-999.0,56,-99.99,,,-99.99,452.0,meteohub,2013-10-17 20:27:00,
2013-10-17 16:32:00,87.1,69.4,-100.00,SSW,209,1.0,-999.0,56,-99.99,,,-99.99,434.0,meteohub,2013-10-17 20:32:00,
2013-10-17 16:37:00,86.9,69.3,-100.00,SE,144,0.0,-999.0,56,-99.99,,,-99.99,417.0,meteohub,2013-10-17 20:37:00,
2013-10-17 16:42:00,86.5,68.4,-100.00,NNW,331,0.0,-999.0,55,-99.99,,,-99.99,399.0,meteohub,2013-10-17 20:42:00,
2013-10-17 16:47:00,87.1,68.9,-100.00,NW,309,0.0,-999.0,55,-99.99,,,-99.99,381.0,meteohub,2013-10-17 20:47:00,
2013-10-17 16:52:00,86.4,67.3,-100.00,NNW,338,0.0,-999.0,53,-99.99,,,-99.99,364.0,meteohub,2013-10-17 20:52:00,
2013-10-17 16:57:00,86.5,68.0,-100.00,WSW,252,0.0,-999.0,54,-99.99,,,-99.99,346.0,meteohub,2013-10-17 20:57:00,
2013-10-17 17:02:00,86.4,67.3,-100.00,SSW,200,0.0,-999.0,53,-99.99,,,-99.99,327.0,meteohub,2013-10-17 21:02:00,
2013-10-17 17:07:00,86.4,67.3,-100.00,SSE,163,0.0,-999.0,53,-99.99,,,-99.99,308.0,meteohub,2013-10-17 21:07:00,
2013-10-17 17:12:00,85.8,64.9,-100.00,WNW,302,4.0,-999.0,50,-99.99,,,-99.99,288.0,meteohub,2013-10-17 21:12:00,
2013-10-17 17:17:00,86.2,65.3,-100.00,SW,234,1.0,-999.0,50,-99.99,,,-99.99,269.0,meteohub,2013-10-17 21:17:00,
2013-10-17 17:22:00,86.2,65.8,-100.00,SSW,205,0.0,-999.0,51,-99.99,,,-99.99,257.0,meteohub,2013-10-17 21:22:00,
2013-10-17 17:27:00,86.0,65.1,-100.00,SSW,201,3.0,-999.0,50,-99.99,,,-99.99,234.0,meteohub,2013-10-17 21:27:00,
2013-10-17 17:32:00,85.5,64.0,-100.00,WSW,244,1.0,-999.0,49,-99.99,,,-99.99,216.0,meteohub,2013-10-17 21:32:00,
2013-10-17 17:37:00,85.3,62.8,-100.00,SSE,160,0.0,-999.0,47,-99.99,,,-99.99,190.0,meteohub,2013-10-17 21:37:00,
2013-10-17 17:42:00,85.3,64.6,-100.00,NW,313,0.0,-999.0,50,-99.99,,,-99.99,169.0,meteohub,2013-10-17 21:42:00,
2013-10-17 17:47:00,84.7,63.5,-100.00,South,169,2.0,-999.0,49,-99.99,,,-99.99,139.0,meteohub,2013-10-17 21:47:00,
2013-10-17 17:52:00,84.4,62.6,-100.00,South,190,5.0,-999.0,48,-99.99,,,-99.99,118.0,meteohub,2013-10-17 21:52:00,
2013-10-17 17:57:00,83.8,59.0,-100.00,SSE,150,1.0,-999.0,43,-99.99,,,-99.99,100.0,meteohub,2013-10-17 21:57:00,
2013-10-17 18:02:00,83.7,60.6,-100.00,NW,315,0.0,-999.0,46,-99.99,,,-99.99,83.0,meteohub,2013-10-17 22:02:00,
2013-10-17 18:07:00,83.5,60.4,-100.00,SE,142,2.0,-999.0,46,-99.99,,,-99.99,65.0,meteohub,2013-10-17 22:07:00,
2013-10-17 18:12:00,83.5,59.4,-100.00,SW,220,2.0,-999.0,44,-99.99,,,-99.99,53.0,meteohub,2013-10-17 22:12:00,
2013-10-17 18:17:00,83.1,59.0,-100.00,South,177,1.0,-999.0,44,-99.99,,,-99.99,33.0,meteohub,2013-10-17 22:17:00,
2013-10-17 18:22:00,82.9,58.1,-100.00,South,177,0.0,-999.0,43,-99.99,,,-99.99,25.0,meteohub,2013-10-17 22:22:00,
2013-10-17 18:27:00,82.0,54.0,-100.00,SE,142,0.0,-999.0,38,-99.99,,,-99.99,18.0,meteohub,2013-10-17 22:27:00,
2013-10-17 18:32:00,81.7,51.4,-100.00,SW,218,1.0,-999.0,35,-99.99,,,-99.99,14.0,meteohub,2013-10-17 22:32:00,
2013-10-17 18:37:00,81.5,49.6,-100.00,SSE,153,4.0,-999.0,33,-99.99,,,-99.99,12.0,meteohub,2013-10-17 22:37:00,
2013-10-17 18:42:00,81.1,50.2,-100.00,SW,225,0.0,-999.0,34,-99.99,,,-99.99,9.0,meteohub,2013-10-17 22:42:00,
2013-10-17 18:47:00,81.1,50.2,-100.00,SSE,148,0.0,-999.0,34,-99.99,,,-99.99,5.0,meteohub,2013-10-17 22:47:00,
2013-10-17 18:52:00,81.0,49.1,-100.00,SSE,168,0.0,-999.0,33,-99.99,,,-99.99,0.0,meteohub,2013-10-17 22:52:00,
2013-10-17 18:57:00,81.0,47.5,-100.00,SSE,161,0.0,-999.0,31,-99.99,,,-99.99,0.0,meteohub,2013-10-17 22:57:00,
2013-10-17 19:02:00,81.0,47.5,-100.00,South,190,0.0,-999.0,31,-99.99,,,-99.99,0.0,meteohub,2013-10-17 23:02:00,
2013-10-17 19:12:00,80.8,45.5,-100.00,SE,144,0.0,-999.0,29,-99.99,,,-99.99,0.0,meteohub,2013-10-17 23:12:00,
2013-10-17 19:17:00,80.6,45.3,-100.00,SSW,213,0.0,-999.0,29,-99.99,,,-99.99,0.0,meteohub,2013-10-17 23:17:00,
2013-10-17 19:22:00,80.6,46.2,-100.00,South,183,0.0,-999.0,30,-99.99,,,-99.99,0.0,meteohub,2013-10-17 23:22:00,
2013-10-17 19:27:00,80.6,45.3,-100.00,SW,235,0.0,-999.0,29,-99.99,,,-99.99,0.0,meteohub,2013-10-17 23:27:00,
2013-10-17 19:32:00,80.6,44.4,-100.00,South,169,0.0,-999.0,28,-99.99,,,-99.99,0.0,meteohub,2013-10-17 23:32:00,
2013-10-17 19:37:00,80.4,46.2,-100.00,SSW,200,0.0,-999.0,30,-99.99,,,-99.99,0.0,meteohub,2013-10-17 23:37:00,
2013-10-17 19:42:00,80.2,46.9,-100.00,SSW,207,0.0,-999.0,31,-99.99,,,-99.99,0.0,meteohub,2013-10-17 23:42:00,
2013-10-17 19:47:00,80.2,45.1,-100.00,SW,222,2.0,-999.0,29,-99.99,,,-99.99,0.0,meteohub,2013-10-17 23:47:00,
2013-10-17 19:52:00,80.2,45.1,-100.00,South,175,0.0,-999.0,29,-99.99,,,-99.99,0.0,meteohub,2013-10-17 23:52:00,
2013-10-17 19:57:00,80.2,46.0,-100.00,South,178,0.0,-999.0,30,-99.99,,,-99.99,0.0,meteohub,2013-10-17 23:57:00,
2013-10-17 20:02:00,80.4,46.2,-100.00,South,187,1.0,-999.0,30,-99.99,,,-99.99,0.0,meteohub,2013-10-18 00:02:00,
2013-10-17 20:07:00,80.2,44.2,-100.00,ESE,115,0.0,-999.0,28,-99.99,,,-99.99,0.0,meteohub,2013-10-18 00:07:00,
2013-10-17 20:12:00,80.4,44.2,-100.00,SSE,150,0.0,-999.0,28,-99.99,,,-99.99,0.0,meteohub,2013-10-18 00:12:00,
2013-10-17 20:17:00,80.4,42.4,-100.00,SSE,165,0.0,-999.0,26,-99.99,,,-99.99,0.0,meteohub,2013-10-18 00:17:00,
2013-10-17 20:22:00,80.4,42.4,-100.00,SSE,156,0.0,-999.0,26,-99.99,,,-99.99,0.0,meteohub,2013-10-18 00:22:00,
2013-10-17 20:27:00,80.4,41.4,-100.00,SSE,164,0.0,-999.0,25,-99.99,,,-99.99,0.0,meteohub,2013-10-18 00:27:00,
2013-10-17 20:32:00,80.8,39.6,-100.00,SSE,161,0.0,-999.0,23,-99.99,,,-99.99,0.0,meteohub,2013-10-18 00:32:00,
2013-10-17 20:37:00,81.1,37.6,-100.00,SW,215,0.0,-999.0,21,-99.99,,,-99.99,0.0,meteohub,2013-10-18 00:37:00,
2013-10-17 20:42:00,81.3,35.1,-100.00,SE,139,0.0,-999.0,19,-99.99,,,-99.99,0.0,meteohub,2013-10-18 00:42:00,
2013-10-17 20:47:00,81.3,33.8,-100.00,SSE,167,0.0,-999.0,18,-99.99,,,-99.99,0.0,meteohub,2013-10-18 00:47:00,
2013-10-17 20:52:00,81.3,33.8,-100.00,South,173,0.0,-999.0,18,-99.99,,,-99.99,0.0,meteohub,2013-10-18 00:52:00,
2013-10-17 20:57:00,81.3,33.8,-100.00,SE,126,0.0,-999.0,18,-99.99,,,-99.99,0.0,meteohub,2013-10-18 00:57:00,
2013-10-17 21:02:00,81.3,33.8,-100.00,South,179,2.0,-999.0,18,-99.99,,,-99.99,0.0,meteohub,2013-10-18 01:02:00,
2013-10-17 21:07:00,81.3,33.8,-100.00,SSE,153,0.0,-999.0,18,-99.99,,,-99.99,0.0,meteohub,2013-10-18 01:07:00,
2013-10-17 21:12:00,81.3,33.8,-100.00,SSE,153,0.0,-999.0,18,-99.99,,,-99.99,0.0,meteohub,2013-10-18 01:12:00,
2013-10-17 21:17:00,81.1,33.6,-100.00,SSE,154,0.0,-999.0,18,-99.99,,,-99.99,0.0,meteohub,2013-10-18 01:17:00,
2013-10-17 21:22:00,81.1,33.6,-100.00,SE,131,0.0,-999.0,18,-99.99,,,-99.99,0.0,meteohub,2013-10-18 01:22:00,
2013-10-17 21:27:00,81.1,33.6,-100.00,SSE,159,0.0,-999.0,18,-99.99,,,-99.99,0.0,meteohub,2013-10-18 01:27:00,
2013-10-17 21:32:00,81.0,34.9,-100.00,SSE,153,0.0,-999.0,19,-99.99,,,-99.99,0.0,meteohub,2013-10-18 01:32:00,
2013-10-17 21:37:00,81.0,34.9,-100.00,SE,124,0.0,-999.0,19,-99.99,,,-99.99,0.0,meteohub,2013-10-18 01:37:00,
2013-10-17 21:42:00,81.0,36.1,-100.00,SSE,151,0.0,-999.0,20,-99.99,,,-99.99,0.0,meteohub,2013-10-18 01:42:00,
2013-10-17 21:47:00,80.8,36.0,-100.00,SSE,161,0.0,-999.0,20,-99.99,,,-99.99,0.0,meteohub,2013-10-18 01:47:00,
2013-10-17 21:52:00,80.8,37.2,-100.00,SSE,160,0.0,-999.0,21,-99.99,,,-99.99,0.0,meteohub,2013-10-18 01:52:00,
2013-10-17 21:57:00,80.8,37.2,-100.00,SSE,161,0.0,-999.0,21,-99.99,,,-99.99,0.0,meteohub,2013-10-18 01:57:00,
2013-10-17 22:02:00,80.8,36.0,-100.00,SSE,160,1.0,-999.0,20,-99.99,,,-99.99,0.0,meteohub,2013-10-18 02:02:00,
2013-10-17 22:07:00,80.8,34.7,-100.00,SSE,159,0.0,-999.0,19,-99.99,,,-99.99,0.0,meteohub,2013-10-18 02:07:00,
2013-10-17 22:12:00,81.0,33.4,-100.00,South,176,1.0,-999.0,18,-99.99,,,-99.99,0.0,meteohub,2013-10-18 02:12:00,
2013-10-17 22:17:00,81.0,32.0,-100.00,SSE,159,1.0,-999.0,17,-99.99,,,-99.99,0.0,meteohub,2013-10-18 02:17:00,
2013-10-17 22:22:00,81.0,32.0,-100.00,WSW,239,0.0,-999.0,17,-99.99,,,-99.99,0.0,meteohub,2013-10-18 02:22:00,
2013-10-17 22:27:00,81.0,32.0,-100.00,SSE,160,0.0,-999.0,17,-99.99,,,-99.99,0.0,meteohub,2013-10-18 02:27:00,
2013-10-17 22:32:00,81.1,32.2,-100.00,South,179,0.0,-999.0,17,-99.99,,,-99.99,0.0,meteohub,2013-10-18 02:32:00,
2013-10-17 22:37:00,81.1,30.7,-100.00,SSE,160,0.0,-999.0,16,-99.99,,,-99.99,0.0,meteohub,2013-10-18 02:37:00,
2013-10-17 22:42:00,81.0,32.0,-100.00,SE,140,1.0,-999.0,17,-99.99,,,-99.99,0.0,meteohub,2013-10-18 02:42:00,
2013-10-17 22:47:00,81.0,32.0,-100.00,South,169,0.0,-999.0,17,-99.99,,,-99.99,0.0,meteohub,2013-10-18 02:47:00,
2013-10-17 22:52:00,80.8,33.3,-100.00,South,189,0.0,-999.0,18,-99.99,,,-99.99,0.0,meteohub,2013-10-18 02:52:00,
2013-10-17 22:57:00,80.8,34.7,-100.00,ESE,111,1.0,-999.0,19,-99.99,,,-99.99,0.0,meteohub,2013-10-18 02:57:00,
2013-10-17 23:02:00,80.8,34.7,-100.00,South,180,0.0,-999.0,19,-99.99,,,-99.99,0.0,meteohub,2013-10-18 03:02:00,
2013-10-17 23:07:00,80.8,36.0,-100.00,SE,136,0.0,-999.0,20,-99.99,,,-99.99,0.0,meteohub,2013-10-18 03:07:00,
2013-10-17 23:12:00,80.4,36.9,-100.00,SSW,210,2.0,-999.0,21,-99.99,,,-99.99,0.0,meteohub,2013-10-18 03:12:00,
2013-10-17 23:17:00,80.4,39.2,-100.00,SSW,213,3.0,-999.0,23,-99.99,,,-99.99,0.0,meteohub,2013-10-18 03:17:00,
2013-10-17 23:22:00,80.4,39.2,-100.00,SSE,164,0.0,-999.0,23,-99.99,,,-99.99,0.0,meteohub,2013-10-18 03:22:00,
2013-10-17 23:27:00,80.4,39.2,-100.00,SSW,207,3.0,-999.0,23,-99.99,,,-99.99,0.0,meteohub,2013-10-18 03:27:00,
2013-10-17 23:32:00,80.2,37.9,-100.00,South,184,0.0,-999.0,22,-99.99,,,-99.99,0.0,meteohub,2013-10-18 03:32:00,
2013-10-17 23:37:00,80.4,38.1,-100.00,SE,128,5.0,-999.0,22,-99.99,,,-99.99,0.0,meteohub,2013-10-18 03:37:00,
2013-10-17 23:42:00,80.4,38.1,-100.00,SSW,202,3.0,-999.0,22,-99.99,,,-99.99,0.0,meteohub,2013-10-18 03:42:00,
2013-10-17 23:47:00,80.2,39.0,-100.00,SSE,155,0.0,-999.0,23,-99.99,,,-99.99,0.0,meteohub,2013-10-18 03:47:00,
2013-10-17 23:52:00,80.1,38.8,-100.00,SSE,161,0.0,-999.0,23,-99.99,,,-99.99,0.0,meteohub,2013-10-18 03:52:00,
2013-10-17 23:57:00,79.9,38.8,-100.00,South,178,0.0,-999.0,23,-99.99,,,-99.99,0.0,meteohub,2013-10-18 03:57:00,